Weather in Spornoye

Russia / Magadan District     62°20′33″N   151°06′18″E
temp.,
°C
wind,
m/s
gust,
m/s
humid.,
%
clouds,
%
prec.,
mm/h
press.,
hPa
HPBL,
m
17 august, wed
wed1723:00+8wnw1295100 2.9 100092
02:00+7wnw2297100 1.9 999121
05:00+7wnw1198100 4.9 999123
08:00+7wnw1197100 1.0 999138
11:00+7nw1195100 1.8 999188
14:00+8nnw1292100 0.4 999247
17:00+8n2294100 1.1 999182
20:00+7nnw1196100 0.5 100068
18 august, thu
thu1823:00+7nw1196100 0.6 100142
02:00+7s1196100 0.1 100122
05:00+7sse1194100 0.1 100111
08:00+9s2283100 0.0 1001267
11:00+12s336951 0.0 1000873
14:00+15sse445687 0.0 9991333
17:00+16sse445383 0.0 9991049
20:00+14ese226497 0.0 100015
19 august, fri
fri1923:00+12se3369100 0.0 100142
02:00+10s578555 0.0 100290
05:00+9sse5789100 0.0 1003104
08:00+12s5577100 0.0 1003279
11:00+11sse3487100 0.6 1004237
14:00+12sse3580100 0.4 1003468
17:00+12sse3584100 0.8 1003417
20:00+10sse3492100 0.6 1003112
20 august, sat
sat2023:00+10s3594100 2.2 1003153
02:00+9s468899 0.0 1003118
05:00+9s448697 0.0 100477
08:00+10s468556 0.1 1005191
11:00+14sw456337 0.1 10051025
14:00+16sw45538 0.1 10051384
17:00+16wsw555044 0.1 10061330
20:00+12ssw3467100 0.0 100755
21 august, sun
sun2123:00+9s4478100 0.0 100931
02:00+9s4480100 0.0 100936
05:00+8s338498 0.0 101026
08:00+11ssw116898 0.0 1009211
11:00+15ene125696 0.0 1007795
14:00+18ene334865 0.0 10061337
17:00+18ene655098 0.0 10051273
20:00+15ne3559100 0.0 1005113